User: anonymous   Login
Location: Bothwell
(42.3833°S, 147.0000°E)
Time: 00:31:26
(UTC+10:00)
Language:

RS-44 - Orbit

View from above orbital plane
View from above orbital plane
View from above satellite
View from above satellite

Ground track
Ground track

The orbit data is extracted from the following two-line orbital elements,

1 44909U 19096E   22273.65931998  .00000030  00000-0  69145-4 0  9999
2 44909  82.5237 160.4005 0218389  73.7924 288.7087 12.79715275128966
Epoch (UTC): 30 September 2022 15:49:25
Eccentricity: 0.0218389
inclination: 82.5237°
perigee height: 1174 km
apogee height: 1511 km
right ascension of ascending node: 160.4005°
argument of perigee: 73.7924°
revolutions per day: 12.79715275
mean anomaly at epoch: 288.7087°
orbit number at epoch: 12896

The dashed part of the orbit path shows where the satellite is in the earth's shadow,  

DLR